User: anonymous   Login
Location: Knowlton
(51.2333°N, 1.2667°E)
Time: 18:43:56
(UTC+00:00)
Language:

LilacSat-2 - Orbit

View from above orbital plane
View from above orbital plane
View from above satellite
View from above satellite

Ground track
Ground track

The orbit data is extracted from the following two-line orbital elements,

1 40908U 15049K   21341.17698097  .00001288  00000-0  72900-4 0  9999
2 40908  97.5109 338.9204 0014636 328.0065  98.5545 15.14754487343379
Epoch (UTC): 07 December 2021 04:14:51
Eccentricity: 0.0014636
inclination: 97.5109°
perigee height: 511 km
apogee height: 532 km
right ascension of ascending node: 338.9204°
argument of perigee: 328.0065°
revolutions per day: 15.14754487
mean anomaly at epoch: 98.5545°
orbit number at epoch: 34337

The dashed part of the orbit path shows where the satellite is in the earth's shadow,  

DLR